Flight Track Log - Related Links

Times and Time Zones

All times are in EDT time to prevent confusion due to time zone crossing. See the AWE611A flight status page for this flight to view local times or setup timezone preferences in your user account.

Time Position Orientation Groundspeed Altitude Reporting Facility
EDT Latitude Longitude Course Direction KTS MPH feet Rate Location/Type
Wed 11:50:02 PM 33.8728 -112.1781 360° North 363 418 14,300  Level Los Angeles Center
Wed 11:51:03 PM 33.9769 -112.1775 360° North 372 428 15,900 1,854 Climbing Los Angeles Center
Wed 11:52:05 PM 34.0853 -112.1781 360° North 383 441 18,100 1,645 Climbing Los Angeles Center
Wed 11:53:07 PM 34.1950 -112.1753 North 392 451 19,300 1,417 Climbing Los Angeles Center
Wed 11:54:12 PM 34.3286 -112.1717 North 411 473 21,100 1,714 Climbing Albuquerque Center
Wed 11:55:13 PM 34.4431 -112.1692 North 410 472 22,900 1,463 Climbing Albuquerque Center
Wed 11:56:15 PM 34.5572 -112.1653 North 408 470 24,100 1,073 Climbing Albuquerque Center
Wed 11:57:16 PM 34.6750 -112.1653 360° North 415 478 25,100 934 Climbing Albuquerque Center
Wed 11:58:17 PM 34.7547 -112.2683 313° West 421 484 26,000 439 Climbing Albuquerque Center
Wed 11:59:19 PM 34.7950 -112.4042 290° West 425 489 26,000  Level Albuquerque Center
Thu 12:00:20 AM 34.8622 -112.5597 298° West 432 497 26,000  Level Albuquerque Center
Thu 12:01:21 AM 34.9389 -112.6769 309° West 439 505 26,000  Level Albuquerque Center
Thu 12:02:23 AM 34.9828 -112.8139 291° West 436 502 26,000  Level Albuquerque Center
Thu 12:03:24 AM 35.0189 -112.9558 287° West 437 503 26,000  Level Albuquerque Center
Thu 12:04:25 AM 35.0644 -113.0911 292° West 431 496 26,000  Level Albuquerque Center
Thu 12:05:27 AM 35.1153 -113.2194 296° West 422 486 26,000 -244 Level Albuquerque Center
Thu 12:06:28 AM 35.1653 -113.3492 295° West 421 484 25,500 -738 Descending Albuquerque Center
Thu 12:07:29 AM 35.2133 -113.4783 295° West 419 482 24,500 -976 Descending Albuquerque Center
Thu 12:08:31 AM 35.2619 -113.6050 295° West 415 478 23,500 -976 Descending Albuquerque Center
Thu 12:09:32 AM 35.3086 -113.7294 295° West 408 470 22,500 -966 Descending Albuquerque Center
Thu 12:11:00 AM 35.3739 -113.9025 295° West 402 463 21,100 -1,480 Descending Los Angeles Center
Thu 12:12:02 AM 35.4333 -114.0589 295° West 399 459 18,800 -2,081 Descending Los Angeles Center
Thu 12:13:04 AM 35.4944 -114.1522 309° West 387 445 16,800 -2,018 Descending Los Angeles Center
Thu 12:13:52 AM 35.5708 -114.2275 321° Northwest 391 450 15,100 -1,902 Descending Los Angeles Center
Thu 12:15:07 AM 35.6661 -114.3114 324° Northwest 367 422 12,900 -1,314 Descending Los Angeles Center
Thu 12:16:09 AM 35.7411 -114.3814 323° Northwest 350 403 12,100 -732 Descending Los Angeles Center
Thu 12:17:10 AM 35.8183 -114.4194 338° Northwest 311 358 11,400 -537 Descending Los Angeles Center
Thu 12:18:12 AM 35.8953 -114.4550 339° North 300 345 11,000 -677 Descending Los Angeles Center
Thu 12:19:14 AM 35.9739 -114.4939 338° Northwest 265 305 10,000 -1,073 Descending Los Angeles Center
Thu 12:20:15 AM 36.0050 -114.5672 298° West 248 285 8,800 -984 Descending Los Angeles Center
Thu 12:21:16 AM 36.0367 -114.6436 297° West 240 276 8,000 -344 Descending Los Angeles Center
Thu 12:22:17 AM 36.0694 -114.7233 297° West 242 278 8,100 -290 Climbing Los Angeles Center
Thu 12:23:20 AM 36.0742 -114.7961 275° West 239 275 7,400 -672 Descending Los Angeles Center
Thu 12:24:22 AM 36.0731 -114.8708 269° West 229 264 6,700 -1,122 Descending Los Angeles Center
Thu 12:25:23 AM 36.0736 -114.9344 271° West 208 239 5,100 -1,317 Descending Los Angeles Center
Thu 12:26:25 AM 36.0731 -114.9975 269° West 194 223 4,000 -1,016 Descending Los Angeles Center
Thu 12:27:27 AM 36.0731 -115.0653 270° West 151 174 3,000 -829 Descending Los Angeles Center
Thu 12:28:28 AM 36.0728 -115.1139 270° West 158 182 2,300 -689 Descending Los Angeles Center
Thu 12:30:00 AM 36.0667 -115.1500 270° West  Level FlightAware Approximate

Login

Don't have an account? Register now (free) for customized features, flight alerts, and more!